Date,TemperatureHighF,TemperatureAvgF,TemperatureLowF,DewpointHighF,DewpointAvgF,DewpointLowF,HumidityHigh,HumidityAvg,HumidityLow,PressureMaxIn,PressureMinIn,WindSpeedMaxMPH,WindSpeedAvgMPH,GustSpeedMaxMPH,PrecipitationSumIn
2013-1-1,64,56,46,36,26,18,66,35,21,0.00,40.00,0,-999,6,0.00
2013-1-2,65,57,51,50,27,16,86,33,20,0.00,40.00,0,-999,12,0.00
2013-1-3,68,59,50,45,5,-100,50,30,27,0.00,0.00,0,-999,9,0.00
2013-1-4,70,54,50,39,25,18,42,32,25,0.00,40.00,0,-999,8,0.00
2013-1-5,65,55,49,52,33,21,97,49,22,0.00,40.00,0,-999,5,0.00
2013-1-6,56,50,46,51,48,46,100,95,84,0.00,40.00,0,-999,0,0.00
2013-1-7,62,53,43,47,37,-100,99,67,41,0.00,40.00,0,-999,1,0.00
2013-1-8,75,60,52,55,37,-100,98,55,32,0.00,0.00,0,-999,9,0.00
2013-1-9,63,56,52,59,47,-100,100,82,52,0.00,0.00,0,-999,8,0.00
2013-1-10,56,50,42,52,37,-100,100,74,34,0.00,40.00,0,-999,16,0.00
2013-1-11,57,46,37,36,28,24,76,52,30,0.00,40.00,0,-999,16,0.00
2013-1-12,57,45,36,34,29,24,73,54,28,0.00,40.00,0,-999,15,0.00
2013-1-13,53,45,41,37,23,-100,73,51,46,0.00,40.00,0,-999,15,0.00
2013-1-14,59,47,39,34,10,-100,57,27,16,0.00,40.00,0,-999,13,0.00
2013-1-15,62,51,42,45,20,11,66,31,22,0.00,40.00,0,-999,12,0.00
2013-1-16,72,63,52,40,34,30,59,36,25,0.00,40.00,0,-999,11,0.00
2013-1-17,79,66,56,36,22,-100,38,22,12,0.00,40.00,0,-999,16,0.00
2013-1-18,80,68,60,41,21,-100,43,19,14,0.00,0.00,0,-999,12,0.00
2013-1-19,80,70,63,37,21,16,36,17,10,0.00,40.00,0,-999,19,0.00
2013-1-20,83,67,60,35,20,15,29,17,10,0.00,40.00,0,-999,13,0.00
2013-1-21,83,69,60,19,16,12,20,14,8,0.00,40.00,0,-999,16,0.00
2013-1-22,78,65,58,45,18,-100,38,20,13,0.00,40.00,0,-999,5,0.00
2013-1-23,78,68,59,52,35,20,77,34,17,0.00,40.00,0,-999,14,0.00
2013-1-24,63,58,54,61,58,54,100,98,90,0.00,40.00,0,-999,8,0.03
2013-1-25,64,61,58,61,56,-100,100,91,73,0.00,40.00,0,-999,8,0.01
2013-1-26,68,59,55,64,58,55,100,98,85,0.00,0.00,0,-999,8,0.01
2013-1-27,62,54,48,56,44,30,100,73,34,0.00,40.00,0,-999,9,0.00
2013-1-28,55,50,45,35,17,-100,69,46,41,0.00,40.00,0,-999,9,0.00
2013-1-29,62,53,47,51,24,-100,99,59,41,0.00,40.00,0,-999,8,0.00
2013-1-30,66,54,47,49,45,42,86,72,48,0.00,40.00,0,-999,6,0.00
2013-1-31,74,63,55,52,39,-100,82,59,34,0.00,40.00,0,-999,1,0.00
2013-2-1,75,62,55,60,48,41,94,61,35,0.00,40.00,0,-999,12,0.00
2013-2-2,73,66,55,61,40,-100,89,53,38,0.00,40.00,0,-999,9,0.00
2013-2-3,68,60,51,59,21,-100,100,63,55,0.00,40.00,0,-999,7,0.00
2013-2-4,67,55,47,58,51,-100,100,91,62,0.00,0.00,0,-999,13,0.00
2013-2-5,62,54,49,56,53,49,100,99,82,0.00,40.00,0,-999,13,0.00
2013-2-6,64,55,48,55,52,48,100,92,64,0.00,40.00,0,-999,0,0.00
2013-2-7,60,53,46,53,49,46,100,89,72,0.00,40.00,0,-999,12,0.00
2013-2-8,53,49,43,48,40,-100,96,82,72,0.00,40.00,0,-999,15,0.00
2013-2-9,59,49,40,48,30,-100,98,70,47,0.00,40.00,0,-999,19,0.00
2013-2-10,59,50,44,50,43,37,91,77,60,0.00,40.00,0,-999,13,0.00
2013-2-11,64,55,45,46,40,33,90,58,31,0.00,40.00,0,-999,16,0.00
2013-2-12,65,52,47,48,36,26,84,55,27,0.00,40.00,0,-999,15,0.00
2013-2-13,63,53,46,55,39,-100,97,69,35,0.00,40.00,0,-999,15,0.00
2013-2-14,74,55,46,55,38,-100,100,67,32,0.00,40.00,0,-999,15,0.00
2013-2-15,82,71,52,44,32,25,73,27,15,0.00,40.00,0,-999,28,0.00
2013-2-16,76,68,59,45,27,23,51,23,16,0.00,40.00,0,-999,4,0.00
2013-2-17,64,57,50,57,46,29,100,71,35,0.00,40.00,0,-999,11,0.00
2013-2-18,60,54,51,55,52,51,100,97,79,0.00,40.00,0,-999,9,0.00
2013-2-19,56,52,47,53,50,47,100,96,74,0.00,40.00,0,-999,19,0.01
2013-2-20,64,56,45,42,35,30,67,47,29,0.00,40.00,0,-999,17,0.00
2013-2-21,64,52,44,48,39,32,85,64,43,0.00,40.00,0,-999,13,0.00
2013-2-22,65,54,47,52,37,-100,98,60,37,0.00,40.00,0,-999,4,0.00
2013-2-23,63,53,45,56,40,-100,98,71,47,0.00,40.00,0,-999,4,0.00
2013-2-24,70,57,48,48,24,-100,93,38,16,0.00,40.00,0,-999,4,0.00
2013-2-25,64,56,46,52,38,19,99,57,20,0.00,0.00,0,-999,4,0.00
2013-2-26,67,57,46,53,26,-100,82,56,28,0.00,40.00,0,-999,4,0.00
2013-2-27,77,66,54,33,25,21,34,22,14,0.00,40.00,0,-999,4,0.00
2013-2-28,76,64,51,53,27,-100,71,32,18,0.00,40.00,0,-999,3,0.00
2013-3-1,86,70,62,55,35,28,70,30,14,0.00,40.00,0,-999,3,0.00
2013-3-2,78,67,55,58,43,31,100,48,25,0.00,40.00,0,-999,4,0.00
2013-3-3,71,58,54,59,55,49,100,91,49,0.00,40.00,0,-999,7,0.00
2013-3-4,62,53,51,57,53,51,100,98,82,0.00,40.00,0,-999,5,0.00
2013-3-5,62,54,48,56,37,-100,100,87,84,0.00,40.00,0,-999,4,0.00
2013-3-6,57,52,47,53,47,-100,100,93,72,0.00,40.00,0,-999,7,0.00
2013-3-7,55,52,50,53,51,50,100,95,84,0.00,40.00,0,-999,0,0.01
2013-3-8,55,54,49,52,49,47,100,85,75,0.00,40.00,0,-999,0,0.03
2013-3-9,64,52,44,56,46,39,99,82,40,0.00,40.00,0,-999,0,0.00
2013-3-10,73,59,50,57,45,38,100,64,37,0.00,0.00,0,-999,0,0.00
2013-3-11,70,55,50,57,48,39,100,78,45,0.00,40.00,0,-999,0,0.00
2013-3-12,68,57,49,58,37,-100,100,74,60,0.00,0.00,0,-999,0,0.00
2013-3-13,72,55,48,60,53,48,100,92,59,0.00,0.00,0,-999,0,0.00
2013-3-14,61,54,48,58,48,-100,100,95,88,0.00,0.00,0,-999,0,0.00
2013-3-15,64,55,51,61,55,51,100,98,86,0.00,0.00,0,-999,0,0.00
2013-3-16,61,54,52,58,47,-100,100,94,86,0.00,40.00,0,-999,0,0.00
2013-3-17,65,55,50,59,43,-100,100,89,78,0.00,40.00,0,-999,0,0.00
2013-3-18,60,55,51,56,54,51,100,97,84,0.00,40.00,0,-999,0,0.00
2013-3-19,63,56,51,59,51,-100,100,94,85,0.00,40.00,0,-999,0,0.00
2013-3-20,66,58,55,60,57,55,100,96,75,0.00,40.00,0,-999,0,0.00
2013-3-21,71,60,52,60,56,52,100,90,65,0.00,40.00,0,-999,0,0.00
2013-3-22,69,57,52,54,47,40,100,73,40,0.00,40.00,0,-999,2,0.00
2013-3-23,67,60,50,59,50,32,97,71,44,0.00,40.00,0,-999,2,0.00
2013-3-24,68,61,50,59,54,47,99,80,50,0.00,0.00,0,-999,2,0.00
2013-3-25,65,57,51,61,47,-100,100,84,47,0.00,40.00,0,-999,2,0.00
2013-3-26,63,55,49,59,49,-100,100,92,77,0.00,40.00,0,-999,2,0.00
2013-3-27,66,57,51,58,51,-100,100,91,72,0.00,0.00,0,-999,2,0.00
2013-3-28,66,56,51,60,55,51,100,98,77,0.00,0.00,0,-999,150,0.00
2013-3-29,67,56,51,61,55,51,100,98,82,0.00,0.00,0,-999,2,0.00
2013-3-30,63,58,55,60,42,-100,100,87,86,0.00,0.00,0,-999,2,0.00
2013-3-31,64,58,55,61,58,55,100,99,88,0.00,40.00,0,-999,2,0.01
2013-4-1,62,57,54,60,56,54,100,97,87,0.00,40.00,0,-999,2,0.01
2013-4-2,68,59,51,60,56,51,100,91,74,0.00,40.00,0,-999,2,0.00
2013-4-3,67,59,53,62,57,53,100,96,80,0.00,40.00,0,-999,2,0.00
2013-4-4,65,58,55,60,54,-100,100,95,84,0.00,40.00,0,-999,2,0.00
2013-4-5,68,60,56,62,47,-100,100,89,81,0.00,40.00,0,-999,2,0.00
2013-4-6,71,61,54,61,58,54,100,92,71,0.00,40.00,0,-999,2,0.00
2013-4-7,74,63,53,61,52,-100,100,81,57,0.00,40.00,0,-999,2,0.00
2013-4-8,67,58,53,57,48,37,100,72,33,0.00,40.00,0,-999,28,0.00
2013-4-9,69,58,49,54,40,-100,93,63,32,0.00,40.00,0,-999,7,0.00
2013-4-10,78,64,54,56,43,32,99,51,22,0.00,0.00,0,-999,10,0.00
2013-4-11,63,57,52,57,54,48,100,89,76,0.00,0.00,0,-999,10,0.00
2013-4-12,63,57,53,58,56,53,100,95,84,0.00,40.00,0,-999,11,0.00
2013-4-13,60,56,53,59,52,-100,100,97,97,0.00,0.00,0,-999,11,0.00
2013-4-14,63,57,55,58,56,55,100,96,82,0.00,40.00,0,-999,3,0.00
2013-4-15,62,57,51,56,48,-100,100,88,80,0.00,0.00,0,-999,3,0.00
2013-4-16,65,55,46,53,37,-100,100,72,23,0.00,0.00,0,-999,3,0.00
2013-4-17,65,58,50,52,29,-100,87,45,27,0.00,40.00,0,-999,11,0.00
2013-4-18,77,66,56,47,25,-100,68,29,14,0.00,40.00,0,-999,17,0.00
2013-4-19,79,65,52,57,42,28,100,48,21,0.00,0.00,0,-999,8,0.00
2013-4-20,77,62,54,61,53,40,100,75,39,0.00,40.00,0,-999,14,0.00
2013-4-21,77,63,55,63,52,-100,100,83,43,0.00,0.00,0,-999,9,0.00
2013-4-22,65,61,57,60,40,-100,100,81,82,0.00,40.00,0,-999,12,0.00
2013-4-23,66,60,56,59,53,-100,100,89,76,0.00,40.00,0,-999,11,0.00
2013-4-24,60,58,56,60,42,-100,100,89,93,0.00,0.00,0,-999,8,0.00
2013-4-25,68,61,53,58,54,51,100,78,56,0.00,40.00,0,-999,14,0.00
2013-4-26,67,62,55,61,51,-100,100,83,72,0.00,40.00,0,-999,12,0.00
2013-4-27,66,59,52,61,57,52,100,95,82,0.00,40.00,0,-999,12,0.00
2013-4-28,62,57,54,61,43,-100,100,91,97,0.00,40.00,0,-999,5,0.00
2013-4-29,64,58,54,62,57,54,100,98,91,0.00,40.00,0,-999,8,0.00
2013-4-30,64,60,56,60,59,56,100,96,85,0.00,40.00,0,-999,9,0.00
2013-5-1,70,62,58,63,60,58,100,92,71,0.00,40.00,0,-999,13,0.00
2013-5-2,89,66,54,60,41,-100,100,68,8,0.00,40.00,0,-999,9,0.00
2013-5-3,90,73,57,65,43,18,100,43,13,0.00,40.00,0,-999,11,0.00
2013-5-4,71,63,55,63,56,-100,99,86,56,0.00,40.00,0,-999,12,0.00
2013-5-5,66,61,57,60,57,56,98,87,72,0.00,40.00,0,-999,17,0.00
2013-5-6,66,61,57,61,54,-100,100,92,74,0.00,40.00,0,-999,12,0.01
2013-5-7,69,62,58,61,58,55,100,89,69,0.00,40.00,0,-999,16,0.01
2013-5-8,67,61,56,62,58,56,100,90,69,0.00,40.00,0,-999,16,0.00
2013-5-9,68,61,55,63,51,-100,100,86,72,0.00,40.00,0,-999,13,0.00
2013-5-10,70,62,56,64,52,-100,100,88,77,0.00,0.00,0,-999,15,0.00
2013-5-11,72,63,57,66,55,-100,100,92,80,0.00,0.00,0,-999,11,0.00
2013-5-12,75,65,57,67,46,-100,100,84,74,0.00,40.00,0,-999,13,0.00
2013-5-13,74,65,59,67,58,-100,100,91,77,0.00,40.00,0,-999,17,0.00
2013-5-14,71,60,56,63,54,-100,100,92,77,0.00,40.00,0,-999,15,0.00
2013-5-15,67,60,54,62,54,-100,100,91,76,0.00,40.00,0,-999,14,0.00
2013-5-16,66,60,54,62,46,-100,100,93,84,0.00,0.00,0,-999,12,0.00
2013-5-17,69,62,56,63,50,-100,100,85,73,0.00,40.00,0,-999,12,0.00
2013-5-18,69,61,54,61,58,54,100,89,64,0.00,40.00,0,-999,12,0.00
2013-5-19,65,57,54,58,56,54,100,97,77,0.00,40.00,0,-999,1,0.00
2013-5-20,72,68,61,65,36,-100,100,72,66,0.00,40.00,0,-999,11,0.00
2013-5-21,70,65,59,67,63,59,100,95,88,0.00,40.00,0,-999,13,0.00
2013-5-22,68,60,54,61,48,-100,100,86,75,0.00,40.00,0,-999,16,0.00
2013-5-23,67,60,54,58,55,51,99,83,58,0.00,40.00,0,-999,14,0.00
2013-5-24,70,60,52,61,56,51,100,85,63,0.00,40.00,0,-999,14,0.00
2013-5-25,70,61,51,70,48,-100,100,85,73,0.00,40.00,0,-999,15,0.00
2013-5-26,69,61,53,61,54,-100,100,87,68,0.00,40.00,0,-999,12,0.00
2013-5-27,71,64,55,63,58,-100,100,86,72,0.00,40.00,0,-999,10,0.00
2013-5-28,75,66,58,65,59,-100,100,85,66,0.00,40.00,0,-999,15,0.00
2013-5-29,74,66,59,65,62,59,100,87,68,0.00,40.00,0,-999,11,0.00
2013-5-30,72,65,58,65,61,58,100,87,75,0.00,40.00,0,-999,12,0.00
2013-5-31,70,65,60,65,62,59,100,93,76,0.00,40.00,0,-999,12,0.00
2013-6-1,75,64,60,73,63,60,100,97,85,0.00,40.00,0,-999,7,0.00
2013-6-2,68,64,60,66,55,-100,100,94,93,0.00,40.00,0,-999,8,0.00
2013-6-3,70,64,60,65,58,-100,100,92,82,0.00,40.00,0,-999,13,0.00
2013-6-4,67,63,58,64,62,58,100,96,86,0.00,40.00,0,-999,19,0.00
2013-6-5,66,60,55,63,59,55,100,97,87,0.00,40.00,0,-999,16,0.00
2013-6-6,67,61,57,63,52,-100,100,93,87,0.00,40.00,0,-999,13,0.00
2013-6-7,67,61,59,64,61,59,100,99,90,0.00,40.00,0,-999,10,0.00
2013-6-8,65,62,60,64,62,60,100,99,97,0.00,40.00,0,-999,10,0.00
2013-6-9,65,62,60,65,62,60,100,99,96,0.00,40.00,0,-999,8,0.00
2013-6-10,73,68,63,64,56,-100,100,80,63,0.00,0.00,0,-999,12,0.00
2013-6-11,71,64,58,66,62,58,100,96,82,0.00,40.00,0,-999,15,0.00
2013-6-12,68,62,60,65,40,-100,100,86,1,29.92,29.83,0,-999,13,0.00
2013-6-13,67,63,60,66,51,-100,100,91,1,29.96,29.88,0,-999,12,0.00
2013-6-14,70,63,57,66,44,-100,100,83,1,29.91,29.79,0,-999,12,0.00
2013-6-15,69,63,60,65,44,-100,100,86,1,29.94,29.80,0,-999,14,0.00
2013-6-16,69,63,59,65,52,-100,100,89,1,29.99,29.91,0,-999,12,0.00
2013-6-17,72,63,56,67,43,-100,100,85,1,29.91,29.82,0,-999,14,0.00
2013-6-18,70,65,59,65,50,-100,100,84,1,29.88,29.83,0,-999,12,0.00
2013-6-19,75,63,58,64,35,-100,100,80,1,29.85,29.75,0,-999,12,0.00
2013-6-20,73,64,57,64,36,-100,98,69,67,29.82,29.72,0,-999,10,0.00
2013-6-22,71,67,60,66,64,60,100,90,81,29.91,29.91,0,-999,13,0.00
2013-6-23,69,64,59,65,46,-100,100,85,1,29.82,29.73,0,-999,12,0.00
2013-6-24,71,64,59,66,50,-100,100,89,1,29.89,29.73,0,-999,8,0.00
2013-6-25,68,64,61,67,60,-100,100,97,92,29.86,29.83,0,-999,12,0.00
2013-6-26,73,66,62,69,66,62,100,97,85,29.93,29.88,0,-999,13,0.00
2013-6-27,75,67,64,71,62,-100,100,96,1,30.02,29.91,0,-999,11,0.00
2013-6-28,75,68,62,69,50,-100,100,86,1,30.01,29.88,0,-999,11,0.00
2013-6-29,80,75,62,70,18,-100,100,54,1,29.88,29.83,0,-999,8,0.00
2013-6-30,84,72,65,70,36,-100,100,70,1,29.65,29.65,0,-999,10,0.00
2013-7-1,77,69,66,72,58,-100,100,92,1,29.83,29.73,0,-999,9,0.00
2013-7-2,74,68,65,70,62,-100,100,95,1,30.00,29.80,0,-999,11,0.00
2013-7-3,73,66,64,69,60,-100,100,95,1,29.83,29.82,0,-999,12,0.00
2013-7-4,73,66,63,70,49,-100,100,89,1,29.78,29.72,0,-999,11,0.00
2013-7-5,74,67,65,70,52,-100,100,89,1,29.83,29.75,0,-999,12,0.00
2013-7-6,71,66,64,69,53,-100,100,92,1,29.74,29.74,0,-999,14,0.00
2013-7-7,70,65,62,68,58,-100,100,94,1,29.85,29.76,0,-999,16,0.00
2013-7-8,70,64,60,67,55,-100,100,94,90,29.92,29.77,0,-999,0,0.00
2013-7-9,76,66,60,68,32,-100,100,76,1,29.98,29.83,0,-999,12,0.00
2013-7-10,75,66,61,69,56,-100,100,92,82,29.85,29.85,0,-999,8,0.00
2013-7-11,75,68,64,72,64,-100,100,96,1,29.91,29.83,0,-999,9,0.00
2013-7-12,72,64,62,69,59,-100,100,97,1,29.83,29.80,0,-999,14,0.00
2013-7-13,71,64,61,68,45,-100,100,89,1,29.93,29.82,0,-999,14,0.00
2013-7-14,73,65,59,67,48,-100,100,86,1,29.95,29.77,0,-999,13,0.00
2013-7-15,72,63,59,65,54,-100,100,91,1,29.91,29.76,0,-999,15,0.00
2013-7-16,72,61,56,65,40,-100,100,85,1,29.92,29.76,0,-999,15,0.00
2013-7-17,72,63,58,66,54,-100,100,91,81,30.04,29.89,0,-999,15,0.00
2013-7-18,71,62,58,66,22,-100,100,73,1,29.96,29.80,0,-999,16,0.00
2013-7-19,70,64,58,65,18,-100,100,70,1,29.88,29.78,0,-999,12,0.00
2013-7-20,73,64,60,69,48,-100,100,91,1,29.83,29.75,0,-999,12,0.00
2013-7-21,69,67,64,69,65,-100,100,99,1,29.85,29.74,0,-999,8,0.00
2013-7-22,74,68,66,70,46,-100,100,86,1,29.98,29.85,0,-999,11,0.00
2013-7-23,71,66,64,68,56,-100,100,92,1,29.96,29.88,0,-999,16,0.00
2013-7-24,69,64,62,67,38,-100,100,84,1,29.95,29.88,0,-999,15,0.00
2013-7-25,68,64,62,67,55,-100,100,94,1,29.93,29.83,0,-999,17,0.00
2013-7-26,71,64,61,67,58,-100,100,95,1,30.01,29.91,0,-999,12,0.00
2013-7-27,69,64,61,67,60,-100,100,95,1,29.95,29.89,0,-999,14,0.00
2013-7-28,68,63,60,67,52,-100,100,92,1,29.86,29.80,0,-999,10,0.00
2013-7-29,70,64,61,66,62,-100,100,95,83,30.00,29.83,0,-999,12,0.00
2013-7-30,69,63,58,65,59,-100,100,95,1,30.08,29.92,0,-999,14,0.00
2013-7-31,68,62,57,65,28,-100,100,77,1,29.95,29.95,0,-999,12,0.00
2013-8-1,70,63,60,66,30,-100,100,80,1,29.97,29.91,0,-999,12,0.00
2013-8-2,71,64,59,67,28,-100,100,77,1,29.95,29.82,0,-999,14,0.00
2013-8-3,69,64,60,66,43,-100,100,85,1,29.85,29.85,0,-999,16,0.00
2013-8-4,68,63,59,65,33,-100,100,81,1,29.98,29.86,0,-999,13,0.00
2013-8-5,69,62,58,65,50,-100,100,91,1,29.98,29.88,0,-999,13,0.00
2013-8-6,69,63,60,65,56,-100,100,94,1,30.01,29.88,0,-999,15,0.00
2013-8-7,68,61,59,66,56,-100,100,96,1,29.93,29.91,0,-999,13,0.00
2013-8-8,72,62,58,66,54,-100,100,93,79,29.94,29.85,0,-999,17,0.00
2013-8-9,70,63,60,66,56,-100,100,93,1,29.93,29.83,0,-999,13,0.00
2013-8-10,72,64,60,66,55,-100,100,92,1,29.88,29.85,0,-999,15,0.00
2013-8-11,69,63,60,66,42,-100,100,86,88,29.88,29.88,0,-999,13,0.00
2013-8-12,70,64,62,67,49,-100,100,89,1,29.93,29.83,0,-999,13,0.00
2013-8-13,70,64,62,67,64,62,100,98,90,29.83,29.83,0,-999,12,0.00
2013-8-14,70,65,61,68,47,-100,100,91,93,29.89,29.80,0,-999,13,0.00
2013-8-15,71,64,61,70,64,61,100,99,94,0.00,40.00,0,-999,11,0.00
2013-8-16,70,64,62,69,64,62,100,100,95,29.85,29.83,0,-999,10,0.00
2013-8-17,70,65,62,68,64,62,100,98,91,29.85,29.85,0,-999,13,0.00
2013-8-18,71,64,61,68,53,-100,100,93,88,29.83,29.79,0,-999,10,0.00
2013-8-19,72,65,62,68,36,-100,100,80,87,29.88,29.82,0,-999,8,0.00
2013-8-20,71,65,62,68,43,-100,100,75,1,29.86,29.80,0,-999,13,0.00
2013-8-21,72,64,59,68,50,-100,100,81,1,29.93,29.79,0,-999,15,0.00
2013-8-22,74,63,59,67,53,-100,100,77,1,29.92,29.77,0,-999,8,0.00
2013-8-23,65,62,60,65,62,60,100,100,100,29.69,29.69,0,-999,7,0.00
2013-8-24,71,62,57,67,57,-100,100,97,93,29.76,29.70,0,-999,13,0.00
2013-8-25,66,62,59,66,52,-100,100,94,100,29.85,29.77,0,-999,0,0.00
2013-8-26,77,64,59,69,64,59,100,95,100,29.80,29.80,0,-999,7,0.00
2013-8-27,72,66,65,66,43,-100,100,86,100,29.73,29.73,0,-999,8,0.00
2013-8-28,73,66,64,65,23,-100,100,75,100,0.00,40.00,0,-999,12,0.00
2013-8-29,78,65,63,67,58,-100,100,95,1,29.78,29.78,0,-999,9,0.00
2013-8-30,89,72,64,69,57,-100,100,73,1,0.00,40.00,0,-999,9,0.00
2013-8-31,86,76,72,71,69,66,94,79,55,30.00,29.86,0,-999,10,0.00
2013-9-1,79,72,69,74,66,-100,100,94,82,29.85,29.83,0,-999,11,0.00
2013-9-2,78,71,67,73,39,-100,100,79,1,29.96,29.77,0,-999,13,0.00
2013-9-3,79,69,67,71,62,-100,100,89,1,0.00,40.00,0,-999,7,0.00
2013-9-4,76,68,65,70,53,-100,100,90,82,29.80,29.79,0,-999,11,0.00
2013-9-5,77,66,64,69,66,64,100,98,76,29.77,29.77,0,-999,8,0.00
2013-9-6,80,65,63,70,65,63,100,97,100,29.76,29.76,0,-999,4,0.00
2013-9-7,74,64,61,68,51,-100,100,92,81,29.78,29.78,0,-999,13,0.00
2013-9-8,70,64,61,67,64,61,100,98,89,29.75,29.70,0,-999,190,0.00
2013-9-9,67,63,61,66,55,-100,100,95,97,0.00,40.00,0,-999,13,0.00
2013-9-10,71,65,61,66,64,61,100,94,83,29.85,29.78,0,-999,11,0.00
2013-9-11,73,65,60,66,54,-100,100,89,79,29.94,29.85,0,-999,14,0.00
2013-9-12,73,64,59,66,37,-100,100,85,100,29.76,29.76,0,-999,8,0.00
2013-9-13,75,64,60,68,44,-100,100,85,76,29.74,29.71,0,-999,180,0.00
2013-9-14,74,65,61,67,40,-100,100,80,1,29.66,29.61,0,-999,13,0.00
2013-9-15,73,65,61,67,15,-100,100,70,86,29.66,29.66,0,-999,16,0.00
2013-9-16,72,65,60,68,-2,-100,100,56,1,29.80,29.67,0,-999,13,0.00
2013-9-17,71,63,57,67,43,-100,100,86,1,29.71,29.68,0,-999,13,0.00
2013-9-18,63,61,60,63,61,60,100,100,100,29.67,29.67,0,-999,0,0.00
2013-9-19,71,64,58,68,56,-100,100,88,1,29.72,29.67,0,-999,12,0.00
2013-9-20,68,65,63,67,52,-100,100,86,1,29.80,29.74,0,-999,13,0.00
2013-9-21,72,64,60,66,61,-100,100,96,77,29.83,29.72,0,-999,17,0.00
2013-9-22,74,64,58,64,51,-100,100,85,56,29.83,29.72,0,-999,12,0.00
2013-9-23,80,70,58,59,55,52,85,62,44,29.79,29.79,0,-999,10,0.00
2013-9-24,81,68,62,65,54,46,100,65,38,29.92,29.83,0,-999,8,0.00
2013-9-25,71,63,56,65,45,-100,100,82,79,29.74,29.74,0,-999,12,0.00
2013-9-26,72,63,57,59,40,-100,99,71,54,29.78,29.62,0,-999,16,0.00
2013-9-27,82,69,53,56,39,-100,89,44,20,29.94,29.78,0,-999,18,0.00
2013-9-28,82,71,61,54,42,34,73,35,21,29.98,29.98,0,-999,12,0.00
2013-9-29,78,66,58,63,36,-100,100,51,30,29.91,29.88,0,-999,9,0.00
2013-9-30,68,62,60,54,35,-100,79,61,61,0.00,40.00,0,-999,1,0.00
2013-10-1,64,62,60,64,62,60,100,100,100,0.00,40.00,0,-999,1,0.00
2013-10-2,73,64,60,66,48,-100,100,85,74,29.92,29.83,0,-999,15,0.00
2013-10-3,70,64,58,65,55,-100,100,91,83,0.00,40.00,0,-999,12,0.00
2013-10-4,87,75,58,61,36,23,100,39,11,29.97,29.97,0,-999,25,0.00
2013-10-5,91,78,72,36,29,27,26,17,10,30.10,29.98,0,-999,23,0.00
2013-10-6,89,73,64,52,33,25,61,26,12,29.95,29.95,0,-999,14,0.00
2013-10-7,71,62,59,64,26,-100,100,54,1,29.85,29.85,0,-999,12,0.00
2013-10-8,70,59,53,64,58,47,100,91,74,0.00,40.00,0,-999,13,0.00
2013-10-9,64,60,54,59,48,-100,100,83,62,29.68,29.65,0,-999,21,0.00
2013-10-10,67,57,51,58,53,48,97,84,70,29.93,29.89,0,-999,13,0.00
2013-10-11,67,60,54,62,50,-100,100,85,83,29.88,29.88,0,-999,14,0.00
2013-10-12,69,58,52,63,50,-100,100,92,76,29.83,29.82,0,-999,13,0.00
2013-10-13,68,59,53,63,48,-100,100,90,74,29.83,29.83,0,-999,10,0.00
2013-10-14,69,61,56,62,56,48,100,86,54,29.89,29.88,0,-999,7,0.00
2013-10-15,87,75,64,53,43,38,59,36,18,29.86,29.85,0,-999,17,0.00
2013-10-16,85,74,63,45,35,30,45,26,14,29.94,29.93,0,-999,15,0.00
2013-10-17,76,65,60,63,36,-100,100,58,26,29.88,29.86,0,-999,7,0.00
2013-10-18,76,65,55,64,53,41,100,66,41,29.97,29.83,0,-999,6,0.00
2013-10-19,76,63,57,65,56,36,100,82,39,29.91,29.88,0,-999,12,0.00
2013-10-20,68,61,56,64,47,-100,100,85,49,29.85,29.83,0,-999,10,0.00
2013-10-21,68,60,53,63,58,53,100,96,77,29.94,29.83,0,-999,10,0.00
2013-10-22,66,59,55,63,58,55,100,98,89,29.95,29.83,0,-999,181,0.00
2013-10-23,67,60,57,61,42,-100,100,85,1,29.86,29.83,0,-999,6,0.00
2013-10-24,69,62,59,62,60,59,100,95,75,29.94,29.86,0,-999,12,0.00
2013-10-25,67,60,56,63,51,-100,100,93,87,30.02,29.94,0,-999,9,0.00
2013-10-26,72,60,53,65,58,51,100,94,53,30.06,29.91,0,-999,12,0.00
2013-10-27,71,61,53,65,60,51,100,96,71,29.88,29.80,0,-999,14,0.00
2013-10-28,63,59,57,59,49,-100,100,85,75,29.80,29.72,0,-999,20,0.00
2013-10-29,66,56,52,56,42,-100,100,86,1,29.80,29.80,0,-999,9,0.00
2013-10-30,71,59,53,57,42,-100,100,75,48,30.03,29.88,0,-999,12,0.00
2013-10-31,69,59,54,55,41,-100,94,68,51,29.91,29.91,0,-999,10,0.00
2013-11-1,81,72,59,55,49,42,82,47,27,29.88,29.88,0,-999,8,0.00
2013-11-2,80,66,54,62,26,-100,100,48,1,29.88,29.83,0,-999,11,0.00
2013-11-3,67,60,53,61,44,-100,100,85,69,29.88,29.74,0,-999,10,0.00
2013-11-4,68,61,56,60,58,52,100,92,74,29.83,29.79,0,-999,11,0.00
2013-11-5,75,60,52,52,32,-100,88,43,25,30.06,29.83,0,-999,8,0.00
2013-11-6,83,67,59,50,31,22,62,28,12,30.07,30.03,0,-999,14,0.00
2013-11-7,82,71,60,42,30,-100,42,26,19,30.00,29.91,0,-999,12,0.00
2013-11-8,72,59,54,57,42,31,91,55,30,29.89,29.88,0,-999,5,0.00
2013-11-9,73,61,52,63,51,42,100,74,41,30.00,29.85,0,-999,8,0.00
2013-11-10,80,60,51,60,47,30,100,70,17,30.05,29.93,0,-999,13,0.00
2013-11-11,74,60,53,61,44,-100,100,73,42,30.06,29.91,0,-999,8,0.00
2013-11-12,77,64,59,64,32,-100,99,61,55,30.02,29.98,0,-999,6,0.00
2013-11-13,86,69,61,52,44,35,67,42,22,29.95,29.92,0,-999,11,0.00
2013-11-14,78,65,57,61,27,-100,100,56,30,0.00,40.00,0,-999,10,0.00
2013-11-15,68,60,54,61,44,-100,100,84,77,29.67,29.62,0,-999,12,0.00
2013-11-16,65,62,58,61,60,58,100,93,87,0.00,40.00,0,-999,8,0.00
2013-11-17,59,56,53,59,56,53,100,100,95,29.95,29.94,0,-999,0,0.00
2013-11-18,66,58,52,59,39,-100,100,85,77,29.98,29.94,0,-999,11,0.00
2013-11-19,65,58,55,59,57,55,100,95,78,29.98,29.93,0,-999,8,0.00
2013-11-20,68,61,55,63,59,54,100,93,74,29.91,29.91,0,-999,10,0.01
2013-11-21,64,60,57,63,46,-100,100,90,80,29.79,29.79,0,-999,10,0.02
2013-11-22,66,59,56,51,45,43,80,60,47,29.77,29.75,0,-999,15,0.00
2013-11-23,68,59,54,47,41,-100,69,57,41,29.97,29.85,0,-999,19,0.00
2013-11-24,68,58,52,53,43,-100,91,69,45,30.13,29.96,0,-999,10,0.00
2013-11-25,71,63,54,54,45,41,90,54,39,30.19,30.06,0,-999,15,0.00
2013-11-26,70,64,56,57,42,-100,68,54,46,30.13,29.95,0,-999,7,0.00
2013-11-27,75,64,52,58,43,-100,100,56,1,29.94,29.79,0,-999,13,0.00
2013-11-28,70,60,53,60,41,-100,100,70,1,29.92,29.77,0,-999,9,0.00
2013-11-29,71,62,55,55,52,47,95,69,49,30.05,29.92,0,-999,16,0.00
2013-11-30,75,64,55,53,45,-100,77,57,37,30.13,30.03,0,-999,8,0.00
2013-12-1,80,71,60,47,41,36,50,35,24,30.14,30.08,0,-999,10,0.00
2013-12-2,74,65,56,55,25,-100,78,41,26,29.85,29.85,0,-999,13,0.00
2013-12-3,64,57,51,60,33,-100,95,69,56,29.80,29.63,0,-999,19,0.00
2013-12-4,60,53,46,48,26,-100,91,47,34,29.88,29.64,0,-999,8,0.00
2013-12-5,60,51,46,42,14,-100,57,40,39,29.94,29.80,0,-999,15,0.00
2013-12-6,61,51,44,45,5,-100,85,45,46,30.11,29.95,0,-999,12,0.00
2013-12-7,58,48,41,54,30,-100,100,68,1,29.91,29.89,0,-999,25,0.02
2013-12-8,56,47,42,40,31,24,69,53,39,30.08,29.94,0,-999,14,0.01
2013-12-9,61,50,42,24,14,2,44,26,12,30.09,30.01,0,-999,25,0.00
2013-12-10,65,53,46,43,13,3,64,20,13,30.13,30.00,0,-999,12,0.00
2013-12-11,74,59,54,36,16,-100,40,21,13,30.10,30.06,0,-999,17,0.00
2013-12-12,70,59,50,51,29,-100,84,41,20,30.04,30.04,0,-999,11,0.00
2013-12-13,61,53,48,56,45,30,100,77,41,30.04,30.01,0,-999,8,0.00
2013-12-14,76,64,49,45,28,-100,85,31,18,30.26,30.25,0,-999,15,0.00
2013-12-15,79,69,57,42,15,-100,40,25,21,30.17,30.04,0,-999,9,0.00
2013-12-16,84,74,67,45,22,-100,45,20,18,30.11,30.00,0,-999,13,0.00
2013-12-17,83,71,64,54,40,29,70,35,20,30.12,29.94,0,-999,10,0.00
2013-12-18,72,59,55,59,55,34,100,90,25,29.88,29.76,0,-999,12,0.00
2013-12-19,57,53,47,55,36,-100,100,83,67,29.73,29.64,0,-999,17,0.00
2013-12-20,66,55,47,49,44,37,88,68,43,29.78,29.78,0,-999,10,0.00
2013-12-21,65,54,49,55,13,-100,87,50,1,29.92,29.79,0,-999,10,0.00
2013-12-22,64,55,49,57,-25,-100,100,41,1,30.15,29.94,0,-999,9,0.00
2013-12-23,74,67,57,56,46,40,88,50,37,30.28,30.28,0,-999,11,0.00
2013-12-24,84,69,60,53,45,38,78,45,28,30.16,30.05,0,-999,14,0.00
2013-12-25,82,73,65,39,32,19,34,22,14,30.18,30.08,0,-999,20,0.00
2013-12-26,83,68,63,22,18,-100,21,16,10,30.14,30.04,0,-999,15,0.00
2013-12-27,83,72,62,42,32,23,48,26,13,0.00,40.00,0,-999,10,0.00
2013-12-28,71,59,51,56,39,18,100,53,14,29.97,29.85,0,-999,7,0.00
2013-12-29,78,70,61,29,22,17,23,17,14,0.00,40.00,0,-999,12,0.00
2013-12-30,76,62,55,41,29,17,57,31,14,0.00,40.00,0,-999,10,0.00
2013-12-31,65,54,51,57,44,25,100,72,32,0.00,40.00,0,-999,5,0.00
2014-1-1,59,53,48,59,46,36,100,80,60,0.00,40.00,0,-999,6,0.00
2014-1-2,79,67,60,47,37,31,61,33,23,29.98,29.96,0,-999,9,0.00